Preview of NWS' New Version of Forecast
This preview is not operational and should not be used for support decisions.

Regional Weather Roundup (RWR)

Issued by National Weather Service (NWS)

                            
000
ASUS45 KCYS 181810
RWRWY 

WYOMING REGIONAL WEATHER ROUNDUP
NATIONAL WEATHER SERVICE CHEYENNE WY
1200 PM MDT SUN AUG 18 2019

NOTE:  "FAIR" INDICATES FEW OR NO CLOUDS BELOW 12,000 FEET
WITH NO SIGNIFICANT WEATHER AND/OR OBSTRUCTIONS TO VISIBILITY.

WYZ001-181900-
...YELLOWSTONE NATIONAL PARK...
  
CITY           SKY/WX    TMP DP  RH WIND       PRES   REMARKS
LK YELLOWSTONE   N/A     64  35  34 VRB7      30.19R                  
6HR MIN TEMP:  33; 6HR MAX TEMP:  64;                                

W YELLOWSTONE  NOT AVBL                                               

$$
WYZ002>013-054>058-071-098>099-181900-
...NORTHERN WYOMING...
  
CITY           SKY/WX    TMP DP  RH WIND       PRES   REMARKS
JACKSON        SUNNY     73  36  25 S16       30.10F                  
CODY           SUNNY     72  44  36 E9        29.96S                  
GREYBULL       SUNNY     71  47  42 VRB6      29.92S                  
6HR MIN TEMP:  50; 6HR MAX TEMP:  72;                                

WORLAND        SUNNY     71  48  43 NW6       29.93F                  
6HR MIN TEMP:  45; 6HR MAX TEMP:  72;                                

SHERIDAN       SUNNY     76  47  35 VRB3      29.89F                  
6HR MIN TEMP:  44; 6HR MAX TEMP:  77;                                

BUFFALO        SUNNY     71  49  45 VRB3      29.95S                  
6HR MIN TEMP:  50; 6HR MAX TEMP:  72;                                

GILLETTE       SUNNY     70  52  52 S10G17    29.93F                  
6HR MIN TEMP:  50; 6HR MAX TEMP:  70;                                

HULETT         FAIR      68  52  56 S16       29.96S                  
NEWCASTLE      CLOUDY    63  50  63 SE12G18   30.00S                  

$$
WYZ014>020-022>026-101>103-181900-
...CENTRAL WYOMING...
  
CITY           SKY/WX    TMP DP  RH WIND       PRES   REMARKS
BIG PINEY      SUNNY     73  29  19 VRB5      30.17R                  
6HR MIN TEMP:  33; 6HR MAX TEMP:  73;                                

PINEDALE       SUNNY     72  27  18 NW10G18   30.18S                  
DUBOIS         FAIR      70  28  21 W16G31    30.11R                  
LANDER         SUNNY     71  46  40 VRB3      30.01F                  
6HR MIN TEMP:  48; 6HR MAX TEMP:  71;                                

RIVERTON       SUNNY     71  47  42 VRB3      30.00F                  
6HR MIN TEMP:  46; 6HR MAX TEMP:  71;                                

CASPER         SUNNY     80  37  21 MISG      29.97F                  
6HR MIN TEMP:  49; 6HR MAX TEMP:  81;                                

DOUGLAS        SUNNY     75  48  38 MISG      29.98S                  
6HR MIN TEMP:  54; 6HR MAX TEMP:  76;                                


$$
WYZ021-027>030-104>119-181900-
...SOUTHERN WYOMING...
  
CITY           SKY/WX    TMP DP  RH WIND       PRES   REMARKS
EVANSTON       SUNNY     77  28  16 W17G28    30.20R                  
6HR MIN TEMP:  49; 6HR MAX TEMP:  78;                                

KEMMERER       SUNNY     73  21  14 W20G28    30.20S                  
FORT BRIDGER   NOT AVBL                                               
ROCK SPRINGS   SUNNY     77  27  15 W24G33    30.15S                  
6HR MIN TEMP:  50; 6HR MAX TEMP:  77;                                

DIXON          FAIR      77  30  18 W12G17    30.19S                  
RAWLINS        LGT RAIN  80  26  13 W30G40    30.12F                  
6HR MIN TEMP:  56; 6HR MAX TEMP:  80; 6HR PCP: TRACE;                

SARATOGA       FAIR      79  27  14 SW22G28   30.17S                  
LARAMIE        SUNNY     81  26  13 W28G38    30.13F                  
6HR MIN TEMP:  41; 6HR MAX TEMP:  81;                                

CHEYENNE       SUNNY     71  51  49 S16       30.07F                  
6HR MIN TEMP:  52; 6HR MAX TEMP:  71;                                

TORRINGTON     SUNNY     77  56  48 SE14      29.96F                  
6HR MIN TEMP:  56; 6HR MAX TEMP:  77;                                

PINE BLUFFS    FAIR      66  52  59 S17       30.07F                  

$$
  

000
ASUS45 KCYS 181810
RWRWY 

WYOMING REGIONAL WEATHER ROUNDUP
NATIONAL WEATHER SERVICE CHEYENNE WY
1200 PM MDT SUN AUG 18 2019

NOTE:  "FAIR" INDICATES FEW OR NO CLOUDS BELOW 12,000 FEET
WITH NO SIGNIFICANT WEATHER AND/OR OBSTRUCTIONS TO VISIBILITY.

WYZ001-181900-
YELLOWSTONE NATIONAL PARK
  
CITY           SKY/WX    TMP DP  RH WIND       PRES   REMARKS
LK YELLOWSTONE   N/A     64  35  34 VRB7      30.19R                  
6HR MIN TEMP:  33; 6HR MAX TEMP:  64;                                

W YELLOWSTONE  NOT AVBL                                               

$$
WYZ002>013-054>058-071-098>099-181900-
NORTHERN WYOMING
  
CITY           SKY/WX    TMP DP  RH WIND       PRES   REMARKS
JACKSON        FAIR      73  36  25 S16       30.10F                  
CODY           FAIR      72  44  36 E9        29.96S                  
GREYBULL       FAIR      71  47  42 VRB6      29.92S                  
6HR MIN TEMP:  50; 6HR MAX TEMP:  72;                                

WORLAND        FAIR      71  48  43 NW6       29.93F                  
6HR MIN TEMP:  45; 6HR MAX TEMP:  72;                                

SHERIDAN       FAIR      76  47  35 VRB3      29.89F                  
6HR MIN TEMP:  44; 6HR MAX TEMP:  77;                                

BUFFALO        FAIR      71  49  45 VRB3      29.95S                  
6HR MIN TEMP:  50; 6HR MAX TEMP:  72;                                

GILLETTE       FAIR      70  52  52 S10G17    29.93F                  
6HR MIN TEMP:  50; 6HR MAX TEMP:  70;                                

HULETT         FAIR      68  52  56 S16       29.96                   
NEWCASTLE      CLOUDY    63  50  63 SE12G18   30.00                   

$$
WYZ014>020-022>026-101>103-181900-
CENTRAL WYOMING
  
CITY           SKY/WX    TMP DP  RH WIND       PRES   REMARKS
BIG PINEY      FAIR      73  29  19 VRB5      30.17R                  
6HR MIN TEMP:  33; 6HR MAX TEMP:  73;                                

PINEDALE       FAIR      72  27  18 NW10G18   30.18                   
DUBOIS         FAIR      70  28  21 W16G31    30.11                   
LANDER         FAIR      71  46  40 VRB3      30.01F                  
6HR MIN TEMP:  48; 6HR MAX TEMP:  71;                                

RIVERTON       FAIR      71  47  42 VRB3      30.00F                  
6HR MIN TEMP:  46; 6HR MAX TEMP:  71;                                

CASPER         FAIR      80  37  21 MISG      29.97F                  
6HR MIN TEMP:  49; 6HR MAX TEMP:  81;                                

DOUGLAS        FAIR      75  48  38 MISG      29.98S                  
6HR MIN TEMP:  54; 6HR MAX TEMP:  76;                                


$$
WYZ021-027>030-104>119-181900-
SOUTHERN WYOMING
  
CITY           SKY/WX    TMP DP  RH WIND       PRES   REMARKS
EVANSTON       FAIR      77  28  16 W17G28    30.20R                  
6HR MIN TEMP:  49; 6HR MAX TEMP:  78;                                

KEMMERER       FAIR      73  21  14 W20G28    30.20                   
ROCK SPRINGS   FAIR      77  27  15 W24G33    30.15S                  
6HR MIN TEMP:  50; 6HR MAX TEMP:  77;                                

DIXON          FAIR      77  30  18 W12G17    30.19S                  
RAWLINS        LGT RAIN  80  26  13 W30G40    30.12F                  
6HR MIN TEMP:  56; 6HR MAX TEMP:  80; 6HR PCP: TRACE;                

SARATOGA       FAIR      79  27  14 SW22G28   30.17S                  
LARAMIE        FAIR      81  26  13 W28G38    30.13F                  
6HR MIN TEMP:  41; 6HR MAX TEMP:  81;                                

CHEYENNE       FAIR      71  51  49 S16       30.07F                  
6HR MIN TEMP:  52; 6HR MAX TEMP:  71;                                

TORRINGTON     FAIR      77  56  48 SE14      29.96F                  
6HR MIN TEMP:  56; 6HR MAX TEMP:  77;                                

PINE BLUFFS    FAIR      66  52  59 S17       30.07F                  

$$